Volver al catálogo

STARLINK-35646

ActivoComunicacionesVLEO
NORAD 66859·PAYLOAD·🇺🇸 United States

Lanzado Dec 2, 2025 desde Cape Canaveral Space Force Station

Loading…

Próximos Pases (próximas 24 horas)

TLE

ActualizadoSource: CelesTrak SupGP

Época: Sep 15, 2026, 03:22 UTC

1 66859C 25281M   26258.14076389  .00040923  00000+0  14819-2 0  2583
2 66859  43.0032 353.6027 0001634 262.9439 291.7343 15.27565584    11

Sigue STARLINK-35646 en tiempo real con AllMySat

Download on the App Store